GW6460 Weather Reports


time (UTC)temp
C
wind
direction
speed
KPH
gust
KPH
rain 1hr
cm
rain 24hr
cm
rain mn
cm
humidity
%
barometer
mb
20260504081730 8 11 11.3 16.1 0.00 0.00 0.00 40
20260504081050 8 14 9.7 19.3 0.00 0.00 0.00 40
20260504070412 9 351 14.5 22.5 0.00 0.00 0.00 36
20260504045051 12 4 8.0 12.9 0.00 0.00 0.00 34
20260504044411 12 28 6.4 11.3 0.00 0.00 0.00 34
20260504043731 12 30 6.4 16.1 0.00 0.00 0.00 33
20260504043051 13 48 8.0 17.7 0.00 0.00 0.00 32
20260504042411 13 38 11.3 20.9 0.00 0.00 0.00 31
20260504041731 14 45 9.7 24.1 0.00 0.00 0.00 30
20260504041051 14 46 11.3 29.0 0.00 0.00 0.00 29
20260504035732 15 27 20.9 32.2 0.00 0.00 0.00 26
20260504035051 15 347 12.9 19.3 0.00 0.00 0.00 28
20260504034413 13 329 9.7 19.3 0.00 0.00 0.00 34
20260504033731 13 228 8.0 11.3 0.00 0.00 0.00 38
20260504033051 13 230 8.0 12.9 0.00 0.00 0.00 36
20260504032412 14 233 8.0 12.9 0.00 0.00 0.00 34
20260504031051 15 236 6.4 11.3 0.00 0.00 0.00 30
20260504025052 16 242 4.8 11.3 0.00 0.00 0.00 28
20260504024412 16 249 6.4 11.3 0.00 0.00 0.00 26
20260504023731 17 242 8.0 12.9 0.00 0.00 0.00 25
20260504022411 18 251 6.4 12.9 0.00 0.00 0.00 23
20260504021731 18 245 6.4 12.9 0.00 0.00 0.00 23
20260504021051 18 257 8.0 12.9 0.00 0.00 0.00 22
20260504020412 19 259 6.4 17.7 0.00 0.00 0.00 21
20260504015052 20 255 8.0 19.3 0.00 0.00 0.00 20
20260504014411 20 253 8.0 17.7 0.00 0.00 0.00 19
20260504013731 20 250 8.0 20.9 0.00 0.00 0.00 18
20260504013052 20 241 12.9 22.5 0.00 0.00 0.00 19
20260504012411 21 248 11.3 20.9 0.00 0.00 0.00 17
20260504011732 21 258 9.7 19.3 0.00 0.00 0.00 16
20260504011051 21 250 11.3 24.1 0.00 0.00 0.00 17
20260504010411 21 263 8.0 27.4 0.00 0.00 0.00 16
20260504005731 21 254 11.3 27.4 0.00 0.00 0.00 16
20260504004411 22 250 11.3 27.4 0.00 0.00 0.00 15
20260504003731 22 253 12.9 25.7 0.00 0.00 0.00 15
20260504003052 22 269 12.9 25.7 0.00 0.00 0.00 14
20260504002412 22 263 11.3 25.7 0.00 0.00 0.00 14
20260504001732 22 290 9.7 22.5 0.00 0.00 0.00 14
20260504001051 23 294 8.0 22.5 0.00 0.00 0.00 12
20260504000411 22 293 9.7 19.3 0.00 0.00 0.00 12
20260503235733 22 251 8.0 27.4 0.00 0.00 0.00 14
20260503234411 22 306 11.3 22.5 0.00 0.00 0.00 12
20260503233731 22 282 9.7 20.9 0.00 0.00 0.00 11
20260503233052 22 262 11.3 22.5 0.00 0.00 0.00 12
20260503232411 22 250 8.0 22.5 0.00 0.00 0.00 12
20260503231731 23 278 9.7 19.3 0.00 0.00 0.00 12
20260503231051 22 251 9.7 22.5 0.00 0.00 0.00 12
20260503230411 22 261 9.7 22.5 0.00 0.00 0.00 11
20260503225732 22 276 11.3 20.9 0.00 0.00 0.00 12
20260503224411 23 286 9.7 22.5 0.00 0.00 0.00 11
20260503223731 23 283 11.3 27.4 0.00 0.00 0.00 10
20260503222411 23 303 11.3 25.7 0.00 0.00 0.00 11
20260503221731 23 263 9.7 29.0 0.00 0.00 0.00 11
20260503221051 22 253 11.3 29.0 0.00 0.00 0.00 11
20260503220411 22 253 14.5 29.0 0.00 0.00 0.00 11
20260503215731 23 260 8.0 20.9 0.00 0.00 0.00 11
20260503215051 22 314 9.7 20.9 0.00 0.00 0.00 10
20260503213732 22 237 16.1 24.1 0.00 0.00 0.00 11
20260503213051 22 241 14.5 22.5 0.00 0.00 0.00 11
20260503212412 22 230 9.7 22.5 0.00 0.00 0.00 11
20260503211731 22 238 11.3 20.9 0.00 0.00 0.00 12
20260503211051 22 268 9.7 25.7 0.00 0.00 0.00 11
20260503210411 22 251 8.0 22.5 0.00 0.00 0.00 12
20260503205732 22 284 8.0 22.5 0.00 0.00 0.00 12
20260503205051 22 251 6.4 25.7 0.00 0.00 0.00 11
20260503204412 21 269 9.7 25.7 0.00 0.00 0.00 11
20260503203733 21 267 9.7 22.5 0.00 0.00 0.00 13
20260503203051 21 314 8.0 24.1 0.00 0.00 0.00 11
20260503202411 21 275 11.3 25.7 0.00 0.00 0.00 12
20260503201732 22 269 9.7 19.3 0.00 0.00 0.00 12
20260503201051 21 306 6.4 22.5 0.00 0.00 0.00 11
20260503200412 21 269 9.7 19.3 0.00 0.00 0.00 13
20260503195731 22 275 6.4 17.7 0.00 0.00 0.00 13
20260503195052 21 301 6.4 14.5 0.00 0.00 0.00 15
20260503194411 21 255 6.4 20.9 0.00 0.00 0.00 16
20260503193731 21 326 12.9 27.4 0.00 0.00 0.00 14
20260503193051 21 329 17.7 25.7 0.00 0.00 0.00 15
20260503191731 21 233 8.0 14.5 0.00 0.00 0.00 17
20260503191051 21 302 6.4 20.9 0.00 0.00 0.00 15
20260503190413 21 271 9.7 20.9 0.00 0.00 0.00 16
20260503185731 20 345 3.2 20.9 0.00 0.00 0.00 16
20260503185051 21 340 11.3 20.9 0.00 0.00 0.00 16
20260503184411 21 318 1.6 16.1 0.00 0.00 0.00 15
20260503183732 20 324 11.3 27.4 0.00 0.00 0.00 17
20260503183051 20 321 11.3 22.5 0.00 0.00 0.00 16
20260503182412 20 354 9.7 22.5 0.00 0.00 0.00 16
20260503181732 20 312 8.0 16.1 0.00 0.00 0.00 17
20260503181051 20 309 9.7 16.1 0.00 0.00 0.00 16
20260503180411 19 309 6.4 22.5 0.00 0.00 0.00 17
20260503175731 19 324 17.7 22.5 0.00 0.00 0.00 18
20260503175051 19 328 11.3 22.5 0.00 0.00 0.00 18
20260503174411 19 348 12.9 25.7 0.00 0.00 0.00 17
20260503173051 18 315 16.1 25.7 0.00 0.00 0.00 18
20260503172411 18 328 8.0 20.9 0.00 0.00 0.00 18
20260503171731 18 333 8.0 27.4 0.00 0.00 0.00 19
20260503171052 18 349 14.5 25.7 0.00 0.00 0.00 21
20260503170412 18 296 9.7 24.1 0.00 0.00 0.00 20
20260503150411 13 282 3.2 9.7 0.00 0.00 0.00 48
20260503131051 7 231 6.4 9.7 0.00 0.00 0.00 67
20260503130411 7 215 3.2 6.4 0.00 0.00 0.00 70